Location: Courcoué
(47.0337°N, 0.3957°E)
Time: 14:06:51
(UTC+00:00)

Daily predictions for brighter satellites

Satellite Brightness Start Highest point End
(mag) Time Altitude Azimuth Time Altitude Azimuth Time Altitude Azimuth
Resurs 01 Rocket 1.7 20:10:51 10° SSE 20:15:13 68° ENE 20:19:37 10° N
Aureole 1 Rocket 2.5 20:13:19 10° S 20:16:22 42° ESE 20:19:13 10° NE
Cosmos 1515 Rocket 3.8 20:13:09 10° S 20:17:22 51° E 20:21:39 10° NNE
Cosmos 2227 Rocket 2.6 20:14:03 10° NNW 20:19:41 66° WSW 20:25:17 10° SSE
Landsat 7 4.1 20:16:00 10° S 20:20:42 71° WSW 20:25:26 10° NNW
Cosmos 921 Rocket 3.6 20:16:38 10° N 20:21:01 45° ENE 20:25:19 10° SE
PSLV R/B 3.8 20:18:41 10° NNE 20:22:45 77° ESE 20:26:46 10° S
Cosmos 1980 Rocket 2.5 20:23:46 10° S 20:29:06 47° ESE 20:34:32 10° NE
CARTOSAT-1 4.0 20:26:35 10° SE 20:30:42 46° ENE 20:34:51 10° N
Cosmos 2228 Rocket 4.3 20:29:23 10° SE 20:33:11 26° E 20:36:58 10° NNE
Cosmos 1464 Rocket 4.0 20:28:00 10° S 20:34:08 68° E 20:40:15 10° NNE
ARGOS Delta rocket 4.2 20:31:01 10° NNE 20:36:33 81° E 20:41:58 10° S
Cosmos 2344 3.5 20:29:39 10° SSW 20:37:03 61° ESE 20:44:31 10° NE
IRS-1A Rocket 4.5 20:31:37 10° SSE 20:37:16 78° WSW 20:43:06 10° NNW
ISS -3.2 20:34:30 10° WNW 20:37:48 54° NNE 20:41:06 10° E
Cosmos 2322 Rocket 4.1 20:37:24 10° ESE 20:38:21 10° E 20:39:17 10° E
Cosmos 2369 3.7 20:33:11 10° SSW 20:38:44 64° ESE 20:44:21 10° NNE
Cosmos 1354 Rocket 4.3 20:34:38 10° S 20:39:42 49° ESE 20:44:48 10° NNE
Spot 2 Rocket 4.2 20:35:42 10° SE 20:40:17 39° ENE 20:44:57 10° N
Cosmos 773 Rocket 4.3 20:35:30 10° NNW 20:40:39 54° ENE 20:45:19 12° SE
Cosmos 1536 3.0 20:37:11 10° NNW 20:41:12 73° W 20:45:13 10° S
SPOT 3 Rocket 3.7 20:36:21 10° SSE 20:41:24 61° ENE 20:46:29 10° N
ATLAS 2AS CENTAUR R/B 3.2 20:34:24 10° S 20:41:47 48° ESE 20:48:58 10° NE
Okean 1 3.8 20:40:36 10° SSE 20:44:22 42° E 20:48:11 10° NNE
Cosmos 1486 Rocket 4.2 20:39:50 10° SSW 20:45:08 77° WNW 20:50:27 10° NNE
H-2A R/B 3.0 20:42:23 10° N 20:46:20 47° WNW 20:50:17 10° SW
Meteor 1-19 Rocket 4.4 20:41:15 10° SSE 20:46:27 48° E 20:51:37 10° NNE
NOSS 3-4 (A) 3.8 20:40:47 10° SW 20:46:28 67° NW 20:52:42 10° NE
NOSS 3-4 (C) 3.8 20:40:48 10° SW 20:46:32 68° NW 20:52:46 10° NE
Nadezhda 4 Rocket 4.0 20:41:37 10° N 20:47:51 72° E 20:54:00 10° SSE
Cosmos 1697 Rocket 3.1 20:42:17 10° SW 20:47:55 69° WNW 20:53:36 10° NNE
RESURS DK-1 3.0 20:44:12 10° S 20:47:57 35° ESE 20:51:43 10° NE
SL-4 R/B 3.2 20:44:30 10° WNW 20:48:41 35° SW 20:52:09 13° SSE
ATLAS CENTAUR R/B 4.2 20:52:44 10° NNW 20:55:37 15° NNE 20:58:28 10° ENE
Cosmos 2297 Rocket 4.2 20:51:42 10° NW 20:56:05 24° WSW 21:00:27 10° SSW
ARIANE 5 R/B 3.9 20:53:39 13° ESE 20:56:54 28° ENE 21:00:43 10° N
Cosmos 44 Rocket 3.8 20:53:03 10° NNW 20:57:38 47° NE 21:01:28 14° ESE
MetOp-B 4.3 20:52:54 10° SSE 20:58:15 79° WSW 21:03:39 10° NNW
Cosmos 1184 Rocket 3.5 21:00:45 10° SSW 21:03:41 49° WNW 21:06:39 10° N
Cosmos 158 Rocket 4.4 21:00:28 10° NNW 21:05:29 52° ENE 21:09:24 17° SE
ATLAS 3B R/B 3.5 20:59:25 10° NW 21:06:32 51° NE 21:13:24 12° ESE
Meteor 2-9 Rocket 4.2 21:01:20 10° N 21:07:09 83° E 21:12:06 14° SSE
NOSS 2-1 (E) 4.3 21:08:10 19° ESE 21:08:10 19° ESE 21:10:25 10° ENE
Cosmos 1975 3.4 21:07:10 10° N 21:11:05 44° ENE 21:13:33 20° SE
Timation 2 Rocket 4.3 21:04:42 10° NNW 21:11:16 71° WSW 21:17:06 14° SSE
Cosmos 2026 Rocket 4.2 21:06:12 10° N 21:12:15 56° ENE 21:17:00 17° SSE
Cosmos 389 Rocket 4.0 21:09:14 10° NNW 21:12:25 33° W 21:15:36 10° SSW
Cosmos 1503 Rocket 4.3 21:09:11 10° SSW 21:14:26 73° WNW 21:19:48 10° NNE
ERS-1 Rocket 3.1 21:12:32 17° SSE 21:16:21 67° ENE 21:21:23 10° N
CZ-4B R/B 3.7 21:14:19 10° NNW 21:16:56 23° WNW 21:19:31 10° WSW
SL-16 R/B 3.0 21:13:28 16° SSE 21:17:01 31° ESE 21:21:56 10° NE
BREEZE-M (TANK) 4.4 21:13:10 10° W 21:17:35 79° N 21:37:14 10° E
Cosmos 1538 Rocket 4.4 21:15:44 10° NNW 21:20:51 50° ENE 21:24:18 20° SE
Helios 1A Rocket 2.9 21:19:01 18° S 21:21:58 77° WSW 21:26:00 10° NNW
CZ-2C R/B 3.9 21:19:25 10° NNE 21:24:08 58° E 21:27:47 17° S
Cosmos 1733 Rocket 3.8 21:21:08 10° N 21:25:21 40° ENE 21:27:44 22° SE
OE (NEXTSAT) 4.1 21:26:23 10° WSW 21:29:40 67° S 21:32:08 16° E
SJ 16-02 1.7 21:27:24 10° SSW 21:31:44 67° WNW 21:36:07 10° NNE
Meteor 1-18 Rocket 4.2 21:26:49 12° S 21:32:14 79° E 21:37:53 10° NNE
Cosmos 1627 Rocket 4.5 21:27:12 10° N 21:33:27 80° E 21:38:04 19° SSE
Cosmos 2292 Rocket 2.6 21:34:03 10° N 21:37:03 79° W 21:38:15 33° S
Cosmos 2278 3.7 21:31:46 10° SSW 21:37:26 86° WNW 21:43:10 10° NNE
ASTRO F (AKARI) 4.2 21:37:45 32° S 21:39:02 79° WSW 21:42:13 10° NNW
Cosmos 1862 Rocket 4.1 21:37:31 26° SE 21:39:32 42° E 21:43:47 10° NNE
BREEZE M DEB (TANK) 4.1 21:37:36 10° WNW 21:41:58 63° SSW 21:55:47 14° SE
Cosmos 2360 Rocket 3.4 21:40:43 21° SE 21:42:13 23° ESE 21:46:34 10° NE
Cosmos 1726 4.3 21:41:59 10° NE 21:44:01 14° ENE 21:45:09 13° E
Meteor 2-15 4.4 21:41:00 19° S 21:45:21 66° E 21:51:23 10° NNE
Cosmos 2263 Rocket 2.5 21:40:07 10° NNW 21:45:36 58° WSW 21:49:11 21° S
NOSS 2-1 (C) 2.7 21:46:44 26° SSW 21:48:20 59° SE 21:51:31 10° NE
SPOT 5 3.5 21:45:43 18° S 21:49:36 57° W 21:54:40 10° NNW
Terra 1.9 21:47:56 24° S 21:50:48 77° WSW 21:55:35 10° NNW
Cosmos 1441 Rocket 3.7 21:51:04 33° SE 21:51:55 39° E 21:55:25 10° NNE
Resurs 01 Rocket 4.2 21:49:57 10° WSW 21:52:11 14° W 21:54:25 10° WNW
Cosmos 1346 Rocket 2.7 21:50:23 26° S 21:52:32 82° E 21:56:35 10° NNE
SAR-Lupe-1 4.2 21:50:13 10° NNE 21:53:45 54° E 21:54:47 38° SSE
Cosmos 2279 Rocket 4.0 21:53:29 23° SSE 21:57:24 64° E 22:03:33 10° NNE
NOSS 2-1 (D) 2.6 21:56:58 24° SSW 21:58:47 78° SE 22:02:00 10° NE
Cosmos 990 Rocket 4.4 21:57:54 28° SSE 22:00:07 44° ESE 22:05:05 10° NNE
Cosmos 1680 Rocket 4.4 21:55:36 10° N 22:00:34 39° ENE 22:03:26 22° ESE
USA 215 3.9 21:55:49 10° ENE 22:01:31 31° SE 22:03:42 25° SSE
Iridium 2 3.7 21:59:34 10° N 22:03:19 63° E 22:04:23 42° SE
Cosmos 1066 Rocket 4.4 22:05:06 28° SSE 22:08:00 57° E 22:13:33 10° NNE
Cosmos 1818 4.4 22:03:19 10° NNW 22:08:34 44° NE 22:12:08 19° ESE
Iridium 4 Rocket 4.2 22:07:53 10° NNE 22:12:06 35° E 22:13:44 27° ESE
Cosmos 1980 Rocket 3.9 22:08:13 10° WSW 22:13:17 33° NW 22:18:24 10° NNE
Cosmos 1898 Rocket 4.1 22:11:50 31° SE 22:13:29 40° ESE 22:18:25 10° NE
SL-24 R/B - RUBIN 2 4.1 22:09:41 10° NW 22:13:56 48° WSW 22:15:32 33° S
ISS -2.9 22:11:24 10° WNW 22:14:21 34° SW 22:14:21 34° SW
Okean 1-7 3.7 22:17:25 34° ESE 22:18:23 39° E 22:22:27 10° NNE
Cosmos 2322 Rocket 2.1 22:18:02 25° S 22:21:19 71° ESE 22:26:55 10° NNE
Iridium 51 4.3 22:21:01 46° ESE 22:21:20 48° E 22:24:47 10° NNE
Cosmos 2180 Rocket 4.4 22:21:19 29° S 22:24:41 78° E 22:30:50 10° N
Cosmos 1844 Rocket 2.8 22:19:44 10° NNW 22:25:20 68° ENE 22:27:57 32° SE
Okean 3 4.3 22:25:02 32° ESE 22:25:40 34° E 22:29:31 10° NNE
RESURS DK-1 4.5 22:22:27 10° WSW 22:26:00 27° NW 22:29:33 10° N
Cosmos 2333 Rocket 3.1 22:25:18 27° ESE 22:26:21 29° ESE 22:31:10 10° NE
Cosmos 1805 3.1 22:23:38 10° N 22:27:33 89° W 22:28:28 51° S
BREEZE-M DEB (TANK) 2.6 22:28:59 10° W 22:31:31 48° SSW 22:31:52 46° S
ATLAS 2AS CENTAUR R/B 3.7 22:25:11 10° WSW 22:32:47 54° NW 22:40:07 10° NE
ARIANE 5 R/B 3.8 22:31:11 23° SW 22:33:14 35° W 22:37:21 10° NNW
ATLAS CENTAUR R/B 2.4 22:30:48 10° NNW 22:35:34 49° NE 22:37:50 27° ESE
USA 267 3.9 22:31:31 10° E 22:37:51 53° NNE 22:44:09 10° NW
Cosmos 1733 3.4 22:36:56 10° NNW 22:40:39 60° W 22:41:23 49° SW
Cosmos 1766 3.2 22:38:47 10° N 22:42:43 71° E 22:43:23 57° SE
Cosmos 2219 Rocket 3.0 22:44:47 30° ESE 22:45:41 31° ESE 22:50:33 10° NE
Cosmos 1844 3.7 22:43:14 10° NNW 22:49:05 86° ENE 22:51:27 38° SSE
Cosmos 1703 Rocket 3.5 22:48:16 51° S 22:49:20 76° E 22:53:46 10° NNE
Cosmos 372 Rocket 4.4 22:51:17 39° SE 22:52:17 43° ESE 22:57:10 10° NE
Meteor 1-4 Rocket 3.5 22:49:58 10° NNW 22:53:10 36° W 22:53:35 34° WSW
ATLAS 3B R/B 3.3 22:50:18 10° NW 22:57:20 49° WSW 23:00:39 31° S
Cosmos 1707 4.0 23:00:37 28° E 23:00:37 28° E 23:03:57 10° NNE
SL-16 R/B 3.1 22:55:28 10° SW 23:00:55 47° NW 23:06:24 10° NNE
Cosmos 1655 Rocket 4.0 22:55:14 10° NNW 23:01:29 77° W 23:04:10 36° S
Cosmos 1782 Rocket 3.5 22:59:36 10° N 23:03:59 82° E 23:04:50 57° SSE
Meteor 2-10 4.4 23:01:59 10° NNW 23:07:05 53° W 23:08:49 36° SSW
ERS-2 2.8 23:03:43 10° NNE 23:06:52 39° E 23:06:52 39° E
CZ-4C R/B 3.3 23:00:36 10° NW 23:07:35 61° NE 23:14:17 16° ESE
NOSS 3-1 (C) 4.1 23:00:59 10° NW 23:08:21 79° NE 23:14:02 24° SE
SWARM A 4.4 23:12:49 66° ENE 23:12:49 66° ENE 23:15:59 10° N
Gblst 52 Del rocket 4.3 23:07:12 10° WSW 23:13:44 87° SSE 23:19:30 10° ENE
Cosmos 1908 Rocket 4.3 23:10:43 10° NNW 23:14:49 41° W 23:15:46 36° SW
Cosmos 2237 Rocket 4.1 23:14:56 14° ESE 23:15:45 15° E 23:18:43 10° ENE
Meteor 1-15 Rocket 4.5 23:12:49 10° NNW 23:18:23 61° W 23:20:26 38° SSW
Cosmos 1470 2.6 23:14:54 10° N 23:18:46 72° E 23:19:01 69° ESE
COSMOS 2428 3.3 23:17:53 37° SE 23:18:59 41° ESE 23:24:16 10° NE
Cosmos 1726 2.7 23:15:45 10° NNW 23:19:17 45° W 23:19:26 45° WSW
Cosmos 1300 Rocket 3.6 23:15:47 10° N 23:20:07 65° ENE 23:20:51 54° SE
Cosmos 2242 Rocket 3.8 23:21:24 46° SW 23:22:36 66° WNW 23:27:08 10° N
ALOS 2 2.5 23:22:00 60° SSE 23:22:48 88° ENE 23:27:13 10° NNW
Cosmos 1937 Rocket 3.6 23:22:46 37° SW 23:24:51 74° WNW 23:30:10 10° NNE
Cosmos 2360 Rocket 2.6 23:22:25 24° SW 23:25:45 61° WNW 23:31:22 10° NNE
Cosmos 1242 Rocket 3.4 23:22:34 10° N 23:25:59 39° ENE 23:26:07 39° E
Okean 2 Rocket 3.9 23:22:41 10° N 23:27:00 42° ENE 23:28:05 36° ESE
In-Cosmos 22 4.5 23:29:31 41° SE 23:31:03 54° E 23:36:24 10° NNE
Cosmos 2333 4.1 23:29:02 39° SSW 23:31:14 87° WNW 23:36:55 10° NNE
Cosmos 1908 4.3 23:30:56 10° N 23:34:23 33° ENE 23:34:48 32° E
Cosmos 1867 3.8 23:33:44 46° SSE 23:34:40 51° ESE 23:39:58 10° NE
Meteor 1-21 4.4 23:34:35 43° SSE 23:36:25 65° E 23:42:11 10° NNE
Cosmos 1626 3.2 23:37:36 34° E 23:37:36 34° E 23:40:45 10° NNE
Cosmos 1842 3.7 23:38:57 46° WSW 23:39:26 49° WNW 23:43:13 10° N
Meteor 2-17 Rocket 4.5 23:37:24 10° NNW 23:43:33 73° W 23:45:46 41° S
Cosmos 1953 3.9 23:40:26 10° NNE 23:43:48 25° ENE 23:44:46 23° E
USA 215 3.2 23:38:25 10° NE 23:45:01 88° NW 23:51:00 13° WSW
Cosmos 2278 Rocket 3.0 23:39:58 10° NNW 23:45:26 45° NE 23:48:51 22° ESE
Cosmos 1674 2.8 23:50:45 61° E 23:50:45 61° E 23:54:24 10° NNE
Cosmos 1818 4.2 23:47:05 10° NW 23:52:04 37° WSW 23:52:45 36° SW
Sich 1 Rocket 3.4 23:48:56 10° N 23:53:21 85° W 23:54:00 65° S
